• Em Portugal
  • Lista de países
  • Para 7 dias
  • Temperatura da água
  • Mapas de satélite
  • Mapa do tempo
  • Widgets de tempo
  • user-avatar
    Iniciar Sessão

    Previsão horária em Kitzbuel

    Hoje, 24 Junho, Domingo

    Tempo Temperatura Precipitação Vento Pressão Humidade
    00:00 +10°C° 0,4 mm 1 m/s 680 mmHg 95%
    01:00 +10°C° 0 mm 1 m/s 680 mmHg 96%
    02:00 +9°C° 0,3 mm 1 m/s 680 mmHg 96%
    03:00 +9°C° 0,3 mm 1 m/s 680 mmHg 96%
    04:00 +9°C° 0,3 mm 1 m/s 679 mmHg 96%
    05:00 +10°C° 0,1 mm 1 m/s 680 mmHg 93%
    06:00 +10°C° 0,1 mm 1 m/s 680 mmHg 90%
    07:00 +12°C° 0 mm 1 m/s 679 mmHg 88%
    08:00 +13°C° 0,1 mm 1 m/s 680 mmHg 80%
    09:00 +14°C° 0,1 mm 1 m/s 680 mmHg 72%
    10:00 +16°C° 0,1 mm 1 m/s 680 mmHg 64%
    11:00 +17°C° 0,2 mm 2 m/s 680 mmHg 61%
    12:00 +17°C° 0,2 mm 2 m/s 680 mmHg 58%
    13:00 +18°C° 0 mm 2 m/s 679 mmHg 56%
    14:00 +18°C° 0,2 mm 2 m/s 679 mmHg 57%
    15:00 +17°C° 0,2 mm 2 m/s 679 mmHg 58%
    16:00 +17°C° 0,2 mm 2 m/s 679 mmHg 59%
    17:00 +16°C° 0,3 mm 2 m/s 679 mmHg 68%
    18:00 +15°C° 0,3 mm 2 m/s 678 mmHg 77%
    19:00 +14°C° 0,3 mm 1 m/s 678 mmHg 86%
    20:00 +13°C° 0,7 mm 1 m/s 678 mmHg 90%
    21:00 +12°C° 0,7 mm 1 m/s 678 mmHg 93%
    22:00 +11°C° 0,7 mm 1 m/s 678 mmHg 97%
    23:00 +11°C° 0,9 mm 1 m/s 678 mmHg 97%

    Amanhã, 25 Junho, Segunda-feira

    Tempo Temperatura Precipitação Vento Pressão Humidade
    00:00 +11°C° 0,9 mm 1 m/s 678 mmHg 97%
    01:00 +10°C° 0,9 mm 1 m/s 678 mmHg 98%
    02:00 +10°C° 0,9 mm 1 m/s 678 mmHg 98%
    03:00 +10°C° 0,9 mm 1 m/s 678 mmHg 98%
    04:00 +10°C° 0,9 mm 1 m/s 678 mmHg 98%
    05:00 +10°C° 1,4 mm 1 m/s 678 mmHg 98%
    06:00 +10°C° 1,4 mm 1 m/s 678 mmHg 98%
    07:00 +10°C° 1,4 mm 1 m/s 679 mmHg 97%
    08:00 +10°C° 1 mm 1 m/s 679 mmHg 96%
    09:00 +11°C° 1 mm 1 m/s 679 mmHg 95%
    10:00 +11°C° 1 mm 1 m/s 679 mmHg 93%
    11:00 +13°C° 0,3 mm 2 m/s 680 mmHg 86%
    12:00 +14°C° 0,3 mm 2 m/s 680 mmHg 78%
    13:00 +16°C° 0,3 mm 2 m/s 680 mmHg 71%
    14:00 +16°C° 0,3 mm 2 m/s 680 mmHg 70%
    15:00 +16°C° 0,3 mm 2 m/s 680 mmHg 69%
    16:00 +16°C° 0,3 mm 2 m/s 680 mmHg 68%
    17:00 +16°C° 0,2 mm 2 m/s 680 mmHg 74%
    18:00 +15°C° 0,2 mm 2 m/s 680 mmHg 80%
    19:00 +14°C° 0,2 mm 1 m/s 680 mmHg 85%
    20:00 +13°C° 0,1 mm 1 m/s 680 mmHg 89%
    21:00 +11°C° 0,1 mm 1 m/s 680 mmHg 92%
    22:00 +10°C° 0,1 mm 1 m/s 681 mmHg 95%
    23:00 +10°C° 0 mm 1 m/s 681 mmHg 95%

    Depois de amanhã, 26 Junho, Terça-feira

    Tempo Temperatura Precipitação Vento Pressão Humidade
    00:00 +9°C° 0 mm 1 m/s 681 mmHg 96%
    01:00 +9°C° 0 mm 1 m/s 681 mmHg 96%
    02:00 +9°C° 0 mm 1 m/s 680 mmHg 96%
    03:00 +8°C° 0 mm 1 m/s 680 mmHg 96%
    04:00 +8°C° 0 mm 1 m/s 680 mmHg 96%
    05:00 +9°C° 0 mm 1 m/s 680 mmHg 91%
    06:00 +11°C° 0 mm 1 m/s 680 mmHg 87%
    07:00 +13°C° 0 mm 1 m/s 681 mmHg 82%
    08:00 +14°C° 0 mm 1 m/s 681 mmHg 72%
    09:00 +16°C° 0 mm 2 m/s 681 mmHg 62%
    10:00 +18°C° 0 mm 2 m/s 681 mmHg 52%
    11:00 +19°C° 0 mm 2 m/s 681 mmHg 51%
    12:00 +19°C° 0 mm 2 m/s 681 mmHg 49%
    13:00 +20°C° 0 mm 2 m/s 681 mmHg 47%
    14:00 +20°C° 0 mm 2 m/s 681 mmHg 49%
    15:00 +20°C° 0 mm 2 m/s 681 mmHg 52%
    16:00 +20°C° 0 mm 2 m/s 680 mmHg 54%
    17:00 +19°C° 0,1 mm 2 m/s 680 mmHg 63%
    18:00 +17°C° 0,1 mm 2 m/s 680 mmHg 72%
    19:00 +16°C° 0,1 mm 2 m/s 680 mmHg 81%
    20:00 +15°C° 0,1 mm 1 m/s 680 mmHg 86%
    21:00 +13°C° 0,1 mm 1 m/s 680 mmHg 90%
    22:00 +12°C° 0,1 mm 1 m/s 681 mmHg 95%
    23:00 +12°C° 0,1 mm 1 m/s 680 mmHg 95%

    27 Junho, Quarta-feira

    Tempo Temperatura Precipitação Vento Pressão Humidade
    00:00 +11°C° 0,1 mm 1 m/s 680 mmHg 95%
    01:00 +11°C° 0,1 mm 1 m/s 680 mmHg 96%
    02:00 +11°C° 0 mm 1 m/s 680 mmHg 96%
    03:00 +11°C° 0 mm 1 m/s 679 mmHg 96%
    04:00 +10°C° 0 mm 1 m/s 679 mmHg 96%
    05:00 +12°C° 0 mm 1 m/s 679 mmHg 92%
    06:00 +13°C° 0 mm 1 m/s 679 mmHg 88%
    07:00 +14°C° 0 mm 1 m/s 680 mmHg 84%
    08:00 +15°C° 0,2 mm 2 m/s 680 mmHg 78%
    09:00 +16°C° 0,2 mm 2 m/s 680 mmHg 73%
    10:00 +18°C° 0,2 mm 2 m/s 680 mmHg 67%
    11:00 +18°C° 0,4 mm 2 m/s 679 mmHg 68%
    12:00 +18°C° 0,4 mm 2 m/s 679 mmHg 69%
    13:00 +18°C° 0,4 mm 3 m/s 679 mmHg 70%
    14:00 +18°C° 0,5 mm 3 m/s 679 mmHg 71%
    15:00 +18°C° 0,5 mm 3 m/s 678 mmHg 71%
    16:00 +18°C° 0,5 mm 3 m/s 678 mmHg 72%
    17:00 +17°C° 0,3 mm 2 m/s 678 mmHg 76%
    18:00 +16°C° 0,3 mm 2 m/s 678 mmHg 81%
    19:00 +15°C° 0,3 mm 2 m/s 678 mmHg 85%
    20:00 +13°C° 0,2 mm 2 m/s 678 mmHg 88%
    21:00 +12°C° 0,2 mm 1 m/s 678 mmHg 91%
    22:00 +10°C° 0,2 mm 1 m/s 678 mmHg 93%
    23:00 +10°C° 0 mm 1 m/s 678 mmHg 94%

    28 Junho, Quinta-feira

    Tempo Temperatura Precipitação Vento Pressão Humidade
    00:00 +9°C° 0 mm 1 m/s 678 mmHg 94%
    01:00 +9°C° 0 mm 1 m/s 677 mmHg 95%
    02:00 +8°C° 0 mm 1 m/s 677 mmHg 94%
    03:00 +8°C° 0 mm 1 m/s 677 mmHg 94%
    04:00 +8°C° 0 mm 1 m/s 677 mmHg 93%
    05:00 +9°C° 0 mm 1 m/s 677 mmHg 90%
    06:00 +11°C° 0 mm 1 m/s 677 mmHg 87%
    07:00 +12°C° 0 mm 1 m/s 677 mmHg 84%
    08:00 +14°C° 0,1 mm 2 m/s 677 mmHg 77%
    09:00 +15°C° 0,1 mm 2 m/s 677 mmHg 70%
    10:00 +17°C° 0,1 mm 2 m/s 677 mmHg 62%
    11:00 +16°C° 0,3 mm 2 m/s 677 mmHg 66%
    12:00 +16°C° 0,3 mm 2 m/s 676 mmHg 69%
    13:00 +16°C° 0,3 mm 2 m/s 676 mmHg 73%
    14:00 +15°C° 0,6 mm 2 m/s 676 mmHg 77%
    15:00 +15°C° 0,6 mm 2 m/s 675 mmHg 82%
    16:00 +14°C° 0,6 mm 2 m/s 675 mmHg 87%
    17:00 +14°C° 0,6 mm 2 m/s 675 mmHg 88%
    18:00 +14°C° 0,6 mm 2 m/s 675 mmHg 89%
    19:00 +13°C° 0,6 mm 2 m/s 675 mmHg 90%
    20:00 +13°C° 1,5 mm 2 m/s 675 mmHg 92%
    21:00 +13°C° 1,5 mm 2 m/s 674 mmHg 94%
    22:00 +12°C° 1,5 mm 2 m/s 674 mmHg 95%
    23:00 +12°C° 2,3 mm 2 m/s 674 mmHg 96%

    29 Junho, Sexta-feira

    Tempo Temperatura Precipitação Vento Pressão Humidade
    00:00 +12°C° 2,3 mm 2 m/s 674 mmHg 96%
    01:00 +12°C° 2,3 mm 2 m/s 674 mmHg 97%
    02:00 +12°C° 2,5 mm 2 m/s 673 mmHg 97%
    03:00 +12°C° 2,5 mm 2 m/s 673 mmHg 97%
    04:00 +12°C° 2,5 mm 2 m/s 673 mmHg 97%
    05:00 +13°C° 1,4 mm 2 m/s 673 mmHg 97%
    06:00 +13°C° 1,4 mm 2 m/s 673 mmHg 97%
    07:00 +13°C° 1,4 mm 2 m/s 673 mmHg 97%
    08:00 +13°C° 1 mm 2 m/s 673 mmHg 97%
    09:00 +13°C° 1 mm 2 m/s 673 mmHg 96%
    10:00 +14°C° 1 mm 2 m/s 673 mmHg 96%
    11:00 +14°C° 0,9 mm 2 m/s 673 mmHg 94%
    12:00 +15°C° 0,9 mm 2 m/s 674 mmHg 93%
    13:00 +16°C° 0,9 mm 2 m/s 674 mmHg 91%
    14:00 +15°C° 1,2 mm 2 m/s 673 mmHg 91%
    15:00 +15°C° 1,2 mm 2 m/s 673 mmHg 92%
    16:00 +15°C° 1,2 mm 2 m/s 673 mmHg 93%
    17:00 +14°C° 0,4 mm 2 m/s 673 mmHg 93%
    18:00 +14°C° 0,4 mm 2 m/s 673 mmHg 93%
    19:00 +14°C° 0,4 mm 1 m/s 673 mmHg 93%
    20:00 +13°C° 0,1 mm 1 m/s 673 mmHg 93%
    21:00 +12°C° 0,1 mm 1 m/s 673 mmHg 94%
    22:00 +12°C° 0,1 mm 1 m/s 673 mmHg 95%
    23:00 +11°C° 0 mm 1 m/s 673 mmHg 95%
    Mostrar mais